Weather History for HELX - November, 2012

Change the Weather History Date:

Friday, November 9, 2012

  Actual Average Record
Temperature  
Mean Temperature 77 °F -  
Max Temperature 89 °F 78 °F 100 °F (2002)
Min Temperature 65 °F 52 °F 51 °F (2005)
Cooling Degree Days 12    
Growing Degree Days 27 (Base 50)    
Moisture  
Dew Point 62 °F    
Average Humidity 57    
Maximum Humidity 73    
Minimum Humidity 32    
Precipitation  
Precipitation 0.00 in 0.00 in - ()
Sea Level Pressure  
Sea Level Pressure 29.86 in    
Wind  
Wind Speed 3 mph ()    
Max Wind Speed 7 mph    
Max Gust Speed -    
Visibility 6.0 miles    
Events      
Averages and records for this station are not official NWS values.
T = Trace of Precipitation, MM = Missing Value Source: Averaged Metar Reports

Daily Weather History Graph

Daily Weather History Graph

Search for Another Location

Airport or City:

Trip Planner

Search our weather history database for the weather conditions in past years. The results will help you decide how hot, cold, wet, or windy it might be!

Date:

Astronomy

Nov. 09, 2012 Rise Set
Actual Time 6:02 AM EET 5:02 PM EET
Civil Twilight 5:38 AM EET 5:26 PM EET
Nautical Twilight 5:11 AM EET 5:54 PM EET
Astronomical Twilight 4:44 AM EET 6:21 PM EET
Moon 1:09 AM EET (11/9) 1:39 PM EET (11/9)
Length of Visible Light 11h 48m
Length of Day
11h 00m
Waning Crescent, 26% of the Moon is Illuminated
Nov 9
Waning Crescent
Nov 14
New
Nov 20
First Quarter
Nov 28
Full
Dec 6
Last Quarter

Hourly Weather History & Observations

Time (EET) Temp. Heat Index Dew Point Humidity Pressure Visibility Wind Dir Wind Speed Gust Speed Precip Events Conditions
12:00 AM 73.4 °F - 60.8 °F 65% 29.83 in - SE 4.6 mph - N/A   Clear
1:00 AM 71.6 °F - 60.8 °F 69% 29.83 in - WSW 3.5 mph - N/A   Clear
2:00 AM 71 °F - 60 °F 61% 29.84 in 6 mi SW 2.3 mph - -  
2:00 AM 71.6 °F - 60.8 °F 69% 29.83 in - SW 2.3 mph - N/A   Clear
4:00 AM 66.2 °F - 57.2 °F 73% 29.83 in - WSW 4.6 mph - N/A   Clear
5:00 AM 69.8 °F - 57.2 °F 64% 29.86 in - Calm Calm - N/A   Clear
6:00 AM 66.2 °F - 57.2 °F 73% 29.86 in - SSW 2.3 mph - N/A   Clear
7:00 AM 68.0 °F - 57.2 °F 68% 29.89 in - SSE 1.2 mph - N/A   Clear
8:00 AM 73 °F - 60 °F 55% 29.90 in 6 mi SW 2.3 mph - -  
8:00 AM 73.4 °F - 60.8 °F 65% 29.92 in - SW 2.3 mph - N/A   Clear
9:00 AM 78.8 °F - 62.6 °F 57% 29.92 in - Calm Calm - N/A   Clear
10:00 AM 82.4 °F 83.9 °F 64.4 °F 54% 29.92 in - WNW 2.3 mph - N/A   Clear
11:00 AM 86.0 °F 86.6 °F 62.6 °F 45% 29.89 in - NW 6.9 mph - N/A   Clear
12:00 PM 87.8 °F 88.5 °F 62.6 °F 43% 29.86 in - NNW 6.9 mph - N/A   Clear
1:00 PM 87.8 °F 87.6 °F 60.8 °F 40% 29.83 in - North 6.9 mph - N/A   Clear
2:00 PM 89 °F - 63 °F 32% 29.81 in 6 mi North 6.9 mph - -  
2:00 PM 89.6 °F 90.1 °F 62.6 °F 40% 29.80 in - North 6.9 mph - N/A   Clear
3:00 PM 87.8 °F 90.4 °F 66.2 °F 49% 29.80 in - NNW 5.8 mph - N/A   Clear
4:00 PM 87.8 °F 90.4 °F 66.2 °F 49% 29.83 in - NNW 4.6 mph - N/A   Clear
5:00 PM 84.2 °F 85.6 °F 64.4 °F 51% 29.83 in - NW 6.9 mph - N/A   Clear
6:00 PM 82.4 °F 84.6 °F 66.2 °F 58% 29.83 in - WNW 6.9 mph - N/A   Clear
7:00 PM 80.6 °F 82.3 °F 64.4 °F 58% 29.86 in - NW 5.8 mph - N/A   Clear
8:00 PM 79 °F - 65 °F 53% 29.88 in 6 mi NW 4.6 mph - -   Partly Cloudy
8:00 PM 78.8 °F - 64.4 °F 61% 29.89 in - NW 4.6 mph - N/A   Clear
9:00 PM 78.8 °F - 64.4 °F 61% 29.92 in - NNW 3.5 mph - N/A   Clear
10:00 PM 77.0 °F - 62.6 °F 61% 29.92 in - NW 4.6 mph - N/A   Clear
11:00 PM 75.2 °F - 62.6 °F 65% 29.92 in - NNW 3.5 mph - N/A   Clear